Billings, MT

11:43 PM MDT on September 24, 2017 (GMT -0600)
Billings Logan International

Weather History for KBIL - April, 2013

Change the Weather History Date:

Thursday, April 18, 2013

  Actual Average Record
Temperature  
Mean Temperature 37 °F 47 °F  
Max Temperature 53 °F 58 °F 83 °F (1936)
Min Temperature 21 °F 35 °F 18 °F (1951)
Degree Days  
Heating Degree Days 28 18  
Month to date heating degree days 480 372  
Since 1 July heating degree days 5883 6182  
Cooling Degree Days 0 0  
Month to date cooling degree days 0 0  
Year to date cooling degree days 0 0  
Moisture  
Dew Point 20 °F    
Average Humidity 58    
Maximum Humidity 92    
Minimum Humidity 24    
Precipitation  
Precipitation 0.00 in 0.06 in 0.97 in (2005)
Month to date precipitation 0.75 0.94  
Year to date precipitation 1.89 2.96  
Snow  
Snow 0.00 in 0.30 in 6.40 in (2002)
Month to date snowfall 3.7 5.7  
Since 1 July snowfall 38.5 50.4  
Snow Depth 0.00 in    
Sea Level Pressure  
Sea Level Pressure 30.21 in    
Wind  
Wind Speed 14 mph (West)    
Max Wind Speed 25 mph    
Max Gust Speed 36 mph    
Visibility 10 miles    
Events Fog    
T = Trace of Precipitation, MM = Missing Value Source: NWS Daily Summary

Daily Weather History Graph

Daily Weather History Graph

Search for Another Location

Airport or City:

Trip Planner

Search our weather history database for the weather conditions in past years. The results will help you decide how hot, cold, wet, or windy it might be!

Date:

Astronomy

Apr. 18, 2013 Rise Set
Actual Time 6:22 AM MDT 8:05 PM MDT
Civil Twilight 5:50 AM MDT 8:36 PM MDT
Nautical Twilight 5:12 AM MDT 9:15 PM MDT
Astronomical Twilight 4:31 AM MDT 9:57 PM MDT
Moon 12:34 PM MDT (4/18) 2:25 AM MDT (4/18)
Length of Visible Light 14h 45m
Length of Day
13h 42m
First Quarter, 52% of the Moon is Illuminated
Apr 18
First Quarter
Apr 25
Full
May 2
Last Quarter
May 9
New
May 17
First Quarter

Hourly Weather History & Observations

Time (MDT) Temp. Windchill Dew Point Humidity Pressure Visibility Wind Dir Wind Speed Gust Speed Precip Events Conditions
12:53 AM 24.1 °F 16.0 °F 21.9 °F 91% 30.35 in 10.0 mi SW 6.9 mph - N/A   Clear
1:53 AM 23.0 °F 13.1 °F 19.9 °F 88% 30.33 in 10.0 mi SW 9.2 mph - N/A Fog Clear
2:28 AM 23.0 °F 13.1 °F 19.9 °F 88% 30.21 in 10.0 mi SW 9.2 mph - N/A Fog Partly Cloudy
2:53 AM 23.0 °F 13.9 °F 19.9 °F 88% 30.32 in 10.0 mi SW 8.1 mph - N/A Fog Partly Cloudy
3:53 AM 21.9 °F 10.4 °F 19.0 °F 89% 30.31 in 10.0 mi SW 11.5 mph - N/A   Clear
4:53 AM 21.9 °F 8.7 °F 19.0 °F 89% 30.30 in 10.0 mi WSW 15.0 mph - N/A   Clear
5:53 AM 21.0 °F 7.6 °F 18.0 °F 88% 30.29 in 10.0 mi WSW 15.0 mph - N/A   Clear
6:53 AM 21.9 °F 7.8 °F 18.0 °F 85% 30.28 in 10.0 mi WSW 17.3 mph - N/A   Clear
7:53 AM 23.0 °F 10.1 °F 19.0 °F 85% 30.28 in 10.0 mi SW 15.0 mph - N/A   Clear
8:53 AM 26.1 °F 14.0 °F 19.9 °F 78% 30.27 in 10.0 mi SW 15.0 mph - N/A   Clear
9:53 AM 32.0 °F 22.5 °F 21.0 °F 64% 30.26 in 10.0 mi SW 12.7 mph - N/A   Clear
10:53 AM 37.9 °F 30.5 °F 23.0 °F 55% 30.23 in 10.0 mi WSW 11.5 mph - N/A   Clear
11:53 AM 44.1 °F 39.5 °F 21.9 °F 42% 30.20 in 10.0 mi SW 8.1 mph 18.4 mph N/A   Partly Cloudy
12:53 PM 46.0 °F 42.5 °F 19.0 °F 34% 30.18 in 10.0 mi Variable 6.9 mph 23.0 mph N/A   Mostly Cloudy
1:53 PM 50.0 °F - 15.1 °F 25% 30.15 in 10.0 mi NNW 18.4 mph 24.2 mph N/A   Scattered Clouds
2:53 PM 51.1 °F - 16.0 °F 25% 30.14 in 10.0 mi NNW 18.4 mph 24.2 mph N/A   Scattered Clouds
3:53 PM 52.0 °F - 17.1 °F 25% 30.13 in 10.0 mi NW 17.3 mph 25.3 mph N/A   Scattered Clouds
4:53 PM 51.1 °F - 18.0 °F 27% 30.12 in 10.0 mi WNW 17.3 mph 26.5 mph N/A   Mostly Cloudy
5:53 PM 52.0 °F - 19.0 °F 27% 30.12 in 10.0 mi NW 18.4 mph 23.0 mph N/A   Mostly Cloudy
6:53 PM 50.0 °F - 19.9 °F 31% 30.13 in 10.0 mi NW 13.8 mph - N/A   Mostly Cloudy
7:53 PM 48.9 °F - 21.0 °F 33% 30.13 in 10.0 mi WNW 19.6 mph 27.6 mph N/A   Mostly Cloudy
8:53 PM 46.9 °F - 23.0 °F 39% 30.13 in 10.0 mi WNW 11.5 mph - N/A   Mostly Cloudy
9:53 PM 44.1 °F 38.6 °F 24.1 °F 45% 30.14 in 10.0 mi NW 10.4 mph - N/A   Mostly Cloudy
10:53 PM 41.0 °F 34.7 °F 25.0 °F 53% 30.12 in 10.0 mi NW 10.4 mph - N/A   Mostly Cloudy
11:53 PM 39.9 °F 32.1 °F 25.0 °F 55% 30.10 in 10.0 mi WNW 13.8 mph - N/A   Scattered Clouds